Regional Weather Roundup
Issued by NWS Little Rock, AR

Home | Current Version | Previous Version | Text Only | Print | Product List | Glossary Off
Versions: 1 2 3 4 5 6 7 8 9 10 11 12 13 14 15 16 17 18 19 20 21 22 23 24 25 26 27 28 29 30 31 32 33 34 35 36 37 38 39 40 41 42 43 44 45 46 47 48 49 50

000
ASUS44 KLZK 190805
RWRLZK

WEATHER ROUNDUP FOR ARKANSAS
NATIONAL WEATHER SERVICE LITTLE ROCK AR
200 AM CST FRI DEC 19 2014

NOTE: "FAIR" INDICATES FEW OR NO CLOUDS BELOW 12,000 FEET WITH NO
SIGNIFICANT WEATHER AND/OR OBSTRUCTIONS TO VISIBILITY.

ARZ001-003-010-029-190900-
NORTHWEST ARKANSAS

CITY           SKY/WX    TMP DP  RH WIND       PRES   REMARKS
FAYETTEVILLE   CLOUDY    40  39  97 CALM      30.19F FOG
FORT SMITH     CLOUDY    41  38  89 E3        30.21F
HARRISON       CLOUDY    37  37 100 E3        30.20S
BENTONVILLE    CLOUDY    39  37  93 N5        30.19F VSB 1/4
ROGERS         CLOUDY    39  39 100 CALM      30.19F FOG
SILOAM SPGS    CLOUDY    39  34  81 N5        30.20F VSB 1
HIGHFILL       FOG       40  39  97 N3        30.19S VSB 1/4
$$

ARZ004-005-016-190900-
NORTH CENTRAL ARKANSAS

CITY           SKY/WX    TMP DP  RH WIND       PRES   REMARKS
BATESVILLE     CLOUDY    39  36  87 NE6       30.24S
FLIPPIN        CLOUDY    37  34  87 CALM      30.22S
MTN HOME       CLOUDY    38  37  97 CALM      30.22R FOG
$$

ARZ040-041-190900-
WEST CENTRAL ARKANSAS

CITY           SKY/WX    TMP DP  RH WIND       PRES   REMARKS
MENA           CLOUDY    43  41  93 E3        30.18S
MOUNT IDA      CLOUDY    40  39  97 CALM      30.15F
$$

ARZ009-017-025-026-028-190900-
NORTHEAST ARKANSAS

CITY           SKY/WX    TMP DP  RH WIND       PRES   REMARKS
CORNING        CLOUDY    37  36  93 NE9       30.27S
JONESBORO      CLOUDY    39  36  89 NE7       30.25S
NEWPORT        CLOUDY    40  38  93 NE10      30.26S
WALNUT RIDGE   CLOUDY    37  34  87 NE9       30.25S
BLYTHEVILLE    CLOUDY    39  36  89 NE10      30.25R
$$

ARZ022-023-033-042-044-190900-
CENTRAL ARKANSAS

CITY           SKY/WX    TMP DP  RH WIND       PRES   REMARKS
LITTLE ROCK    CLOUDY    42  38  85 E7        30.22F
N LITTLE ROCK    N/A     40  40 100 NE8       30.22F
JACKSONVILLE   CLOUDY    41  39  93 NE5       30.21F
SEARCY         CLOUDY    40  38  93 N7        30.23F FOG
HOT SPRINGS    CLOUDY    40  38  93 E6        30.19F
RUSSELLVILLE   CLOUDY    42  38  85 NE6       30.19F
CLINTON        CLOUDY    39  39 100 CALM      30.23F FOG
$$

ARZ036-190900-
EAST ARKANSAS

CITY           SKY/WX    TMP DP  RH WIND       PRES   REMARKS
WEST MEMPHIS   CLOUDY    42  39  89 N6        30.22S
$$

ARZ050-053-066-070-073-190900-
SOUTHWEST ARKANSAS

CITY           SKY/WX    TMP DP  RH WIND       PRES   REMARKS
ARKADELPHIA    CLOUDY    42  42 100 NE7       30.21F FOG
CAMDEN         CLOUDY    45  41  87 MISG      30.20R FOG
TEXARKANA      CLOUDY    44  43  96 NE5       30.18R FOG
EL DORADO      CLOUDY    45  43  93 NE7       30.16F
DE QUEEN       CLOUDY    44  43  96 NE6       30.17F
$$

ARZ056-057-069-190900-
SOUTHEAST ARKANSAS

CITY           SKY/WX    TMP DP  RH WIND       PRES   REMARKS
PINE BLUFF     CLOUDY    42  40  92 N8        30.20F
STUTTGART      CLOUDY    43  37  81 NE7       30.21F
MONTICELLO     CLOUDY    45  42  89 NE5       30.18F

$$




USA.gov is the U.S. government's official web portal to all federal, state and local government web resources and services.